Location: Gloden
(48.4833°N, 15.3167°E)
Time: 16:56:09
(UTC+00:00)

Cosmos 968 Rocket - Pass Details

Date: 15 December 2019
Orbit: 742 x 770 km, 74.0° (Epoch: 18 January)

Event Time Altitude Azimuth Distance (km) Brightness Sun altitude
Exits shadow 05:21:59 - 338° (NNW) 2,578 5.8 -12.7°
Reaches altitude 10° 05:22:45 10° 338° (NNW) 2,280 5.6 -12.6°
Maximum altitude 05:27:56 84° 67° (ENE) 757 3.5 -11.8°
Drops below altitude 10° 05:33:02 10° 156° (SSE) 2,251 6.6 -11.0°
Sets 05:35:23 0° 157° (SSE) 3,168 7.5 -10.7°
